FW3173 Weather Reports


time (UTC)temp
F
wind
direction
speed
knots
gust
knots
rain 1hr
in
rain 24hr
in
rain mn
in
humidity
%
barometer
mb
20260507220040 52 160 3.5 10.4 0.00 0.80 0.80 98 1002.7
20260507214539 52 142 3.5 8.7 0.00 0.80 0.80 98 1002.6
20260507213036 53 188 1.7 8.7 0.00 0.80 0.80 97 1002.5
20260507211546 55 211 1.7 3.5 0.00 0.80 0.80 98 1002.6
20260507210052 56 164 1.7 7.0 0.00 0.80 0.80 99 1002.2
20260507204542 55 121 2.6 5.2 0.01 0.80 0.80 99 1002.1
20260507203034 54 142 2.6 4.3 0.02 0.80 0.80 99 1002.1
20260507201533 54 173 2.6 9.6 0.03 0.80 0.80 98 1002.1
20260507200034 54 178 4.3 13.0 0.10 0.80 0.80 99 1001.6
20260507194542 54 105 3.5 8.7 0.15 0.80 0.80 99 1001.7
20260507193028 54 101 3.5 7.8 0.17 0.79 0.79 99 1002.3
20260507191526 53 162 3.5 8.7 0.20 0.77 0.77 99 1003.0
20260507190037 53 137 5.2 13.9 0.18 0.70 0.70 99 1003.7
20260507184526 53 149 5.2 11.3 0.19 0.65 0.65 98 1004.1
20260507183018 53 179 5.2 13.0 0.26 0.62 0.62 98 1004.7
20260507181517 53 129 6.1 12.2 0.36 0.56 0.56 98 1005.1
20260507180019 53 167 7.0 13.0 0.46 0.52 0.52 97 1005.0
20260507174514 53 150 6.1 13.0 0.45 0.45 0.45 97 1005.4
20260507173031 53 176 7.0 14.8 0.35 0.35 0.35 96 1005.6
20260507171510 54 204 5.2 13.0 0.20 0.20 0.20 95 1005.6
20260507170016 56 194 7.0 13.9 0.04 0.04 0.04 93 1004.8
20260507164519 57 136 8.7 18.2 0.00 0.00 0.00 90 1004.7
20260507163005 59 176 8.7 19.1 0.00 0.00 0.00 88 1004.7
20260507161503 59 133 10.4 23.5 0.00 0.00 0.00 87 1005.2
20260507160002 60 131 9.6 16.5 0.00 0.00 0.00 87 1005.3
20260507154601 59 134 12.2 24.3 0.00 0.00 0.00 87 1005.7
20260507153059 60 138 8.7 24.3 0.00 0.00 0.00 87 1006.0
20260507151557 59 130 12.2 26.1 0.00 0.00 0.00 87 1006.1
20260507150053 59 212 8.7 23.5 0.00 0.00 0.00 87 1007.0
20260507144553 60 222 11.3 25.2 0.00 0.00 0.00 86 1007.3
20260507143051 60 208 10.4 24.3 0.00 0.00 0.00 84 1007.3
20260507141550 60 150 14.8 25.2 0.00 0.00 0.00 84 1007.1
20260507140047 60 151 12.2 23.5 0.00 0.00 0.00 85 1007.4
20260507134548 60 180 13.9 26.1 0.00 0.00 0.00 86 1007.5
20260507133048 60 173 10.4 31.3 0.00 0.00 0.00 88 1007.9
20260507131541 59 56 8.7 23.5 0.00 0.00 0.00 90 1008.2
20260507130042 59 127 11.3 23.5 0.00 0.00 0.00 89 1008.6
20260507124545 58 148 10.4 22.6 0.00 0.00 0.00 89 1008.6
20260507123041 58 183 8.7 24.3 0.00 0.00 0.00 88 1008.7
20260507121536 58 177 9.6 25.2 0.00 0.00 0.00 88 1008.7
20260507120034 59 176 7.8 26.1 0.00 0.00 0.00 88 1008.8
20260507114554 59 169 9.6 20.9 0.00 0.00 0.00 88 1008.6
20260507113055 59 188 9.6 17.4 0.00 0.00 0.00 90 1008.9
20260507111536 58 171 8.7 14.8 0.00 0.00 0.00 92 1008.9
20260507110023 57 142 7.0 20.0 0.00 0.00 0.00 92 1009.4
20260507104529 57 147 5.2 13.9 0.00 0.00 0.00 92 1009.5
20260507103022 57 238 7.0 15.6 0.00 0.00 0.00 92 1009.5
20260507101520 57 142 7.0 15.6 0.00 0.00 0.00 93 1009.6
20260507100015 57 139 7.8 14.8 0.00 0.00 0.00 93 1010.2
20260507094516 57 103 7.8 19.1 0.00 0.00 0.00 93 1010.3
20260507093012 56 166 8.7 16.5 0.00 0.00 0.00 94 1010.7
20260507091510 56 164 5.2 13.0 0.00 0.00 0.00 95 1010.8
20260507090009 55 185 7.0 16.5 0.00 0.00 0.00 96 1010.6
20260507084507 54 150 7.0 14.8 0.00 0.00 0.00 95 1011.3
20260507083108 55 143 9.6 21.7 0.00 0.00 0.00 94 1011.7
20260507081507 56 178 9.6 20.0 0.00 0.00 0.00 91 1011.3
20260507080003 56 164 7.0 15.6 0.00 0.00 0.00 90 1011.3
20260507074502 56 183 7.0 19.1 0.00 0.00 0.00 90 1011.3
20260507073103 56 137 7.0 13.9 0.00 0.00 0.00 91 1011.5
20260507071556 55 152 7.8 17.4 0.00 0.00 0.00 90 1012.1
20260507070054 55 181 7.8 14.8 0.00 0.00 0.00 89 1012.8
20260507064553 55 188 5.2 16.5 0.00 0.00 0.00 89 1013.1
20260507063049 55 166 6.1 11.3 0.00 0.00 0.00 90 1013.4
20260507061548 54 152 4.3 9.6 0.00 0.00 0.00 91 1013.2
20260507060056 53 139 2.6 8.7 0.00 0.00 0.00 91 1013.3
20260507054545 52 171 2.6 7.0 0.00 0.00 0.00 90 1013.3
20260507053042 52 78 2.6 7.0 0.00 0.00 0.00 88 1013.4
20260507051540 52 117 1.7 7.0 0.00 0.00 0.00 88 1014.0
20260507050036 52 142 2.6 7.0 0.00 0.00 0.00 88 1014.6
20260507044534 52 171 2.6 7.8 0.00 0.00 0.00 88 1014.9
20260507043033 52 127 1.7 7.0 0.00 0.00 0.00 88 1015.3
20260507041529 52 144 2.6 7.0 0.00 0.00 0.00 88 1015.7
20260507040025 52 144 2.6 5.2 0.00 0.00 0.00 88 1016.0
20260507034526 53 128 1.7 6.1 0.00 0.00 0.00 86 1016.4
20260507033016 54 148 2.6 6.1 0.00 0.00 0.00 86 1016.8
20260507031517 54 152 2.6 7.8 0.00 0.00 0.00 86 1017.0
20260507030011 54 177 2.6 10.4 0.00 0.00 0.00 86 1017.2
20260507024515 54 173 2.6 7.8 0.00 0.00 0.00 86 1017.4
20260507023010 55 137 3.5 7.0 0.00 0.00 0.00 85 1017.5
20260507021510 55 161 3.5 8.7 0.00 0.00 0.00 85 1017.6
20260507020109 55 127 2.6 8.7 0.00 0.00 0.00 85 1017.7
20260507014507 55 149 3.5 12.2 0.00 0.00 0.00 85 1017.8
20260507013005 55 133 4.3 8.7 0.00 0.00 0.00 85 1018.0
20260507011509 55 174 3.5 9.6 0.00 0.00 0.00 85 1017.9
20260507010005 55 154 6.1 9.6 0.00 0.00 0.00 85 1018.1
20260507004503 55 198 4.3 9.6 0.00 0.00 0.00 84 1018.2
20260507003003 56 167 5.2 13.9 0.00 0.00 0.00 83 1018.3
20260507001505 56 148 5.2 13.0 0.00 0.00 0.00 82 1018.2
20260506234603 57 171 3.5 13.0 0.00 0.00 0.00 81 1018.1
20260506233101 58 175 4.3 12.2 0.00 0.00 0.00 80 1017.8
20260506231606 58 188 6.1 12.2 0.00 0.00 0.00 80 1017.6
20260506230112 59 195 7.8 14.8 0.00 0.00 0.00 79 1017.5
20260506224556 59 182 6.1 13.9 0.00 0.00 0.00 78 1017.3
20260506223057 60 162 8.7 13.9 0.00 0.00 0.00 78 1017.0
20260506221606 59 210 5.2 20.0 0.00 0.00 0.00 77 1016.9